Location: Unspecified
(52.1384°N, 8.6525°W)
Time: 11:42:37
(UTC+00:00)

XW-2F - Pass Details

Date: 26 January 2021
Orbit: 500 x 519 km, 97.5° (Epoch: 24 February)

Event Time Altitude Azimuth Distance (km) Brightness Sun altitude
Rises 18:51:45 0° 207° (SSW) 2,614 ? -15.2°
Reaches altitude 10° 18:54:25 10° 228° (SW) 1,738 ? -15.6°
Maximum altitude 18:56:54 17° 270° (W) 1,370 ? -16.0°
Drops below altitude 10° 18:59:25 10° 312° (NW) 1,756 ? -16.3°
Sets 19:02:09 0° 333° (NNW) 2,654 ? -16.8°
